Johnstown, PA

6:14 AM EDT on August 20, 2017 (GMT -0400)
Johnstown-Cambria County

Weather History for KJST - February, 2015

Change the Weather History Date:

Sunday, February 15, 2015

  Actual Average Record
Temperature  
Mean Temperature -4 °F 27 °F  
Max Temperature 1 °F 34 °F 69 °F (1949)
Min Temperature -9 °F 20 °F -9 °F (2015)
Degree Days  
Heating Degree Days 69 38  
Month to date heating degree days 658 587  
Since 1 July heating degree days 4488 4404  
Cooling Degree Days 0 0  
Month to date cooling degree days 0 0  
Year to date cooling degree days 0 0  
Moisture  
Dew Point -11 °F    
Average Humidity 67    
Maximum Humidity 75    
Minimum Humidity 58    
Precipitation  
Precipitation T in 0.07 in 1.54 in (1989)
Month to date precipitation 1.25 1.25  
Year to date precipitation 3.17 4.13  
Sea Level Pressure  
Sea Level Pressure 30.08 in    
Wind  
Wind Speed 22 mph (WNW)    
Max Wind Speed 35 mph    
Max Gust Speed 48 mph    
Visibility 2 miles    
Events Snow    
T = Trace of Precipitation, MM = Missing Value Source: NWS Daily Summary

Daily Weather History Graph

Daily Weather History Graph

Search for Another Location

Airport or City:

Trip Planner

Search our weather history database for the weather conditions in past years. The results will help you decide how hot, cold, wet, or windy it might be!

Date:

Astronomy

Feb. 15, 2015 Rise Set
Actual Time 7:08 AM EST 5:50 PM EST
Civil Twilight 6:41 AM EST 6:18 PM EST
Nautical Twilight 6:09 AM EST 6:50 PM EST
Astronomical Twilight 5:37 AM EST 7:21 PM EST
Moon 4:07 AM EST (2/15) 2:21 PM EST (2/15)
Length of Visible Light 11h 37m
Length of Day
10h 41m
Waning Crescent, 15% of the Moon is Illuminated
Feb 15
Waning Crescent
Feb 18
New
Feb 25
First Quarter
Mar 5
Full
Mar 13
Last Quarter

Hourly Weather History & Observations

Time (EST) Temp. Windchill Dew Point Humidity Pressure Visibility Wind Dir Wind Speed Gust Speed Precip Events Conditions
12:15 AM -2.0 °F -26.4 °F -9.0 °F 72% 29.77 in 1.2 mi WNW 24.2 mph 38.0 mph 0.00 in   Overcast
12:54 AM -2.0 °F -25.0 °F -9.0 °F 72% 29.92 in 1.0 mi WNW 20.7 mph 36.8 mph 0.00 in Snow Light Snow
1:15 AM -2.9 °F -27.2 °F -9.9 °F 72% 29.79 in 2.5 mi WNW 23.0 mph 29.9 mph 0.00 in   Overcast
1:24 AM -2.9 °F -24.4 °F -9.9 °F 72% 29.79 in 4.0 mi WNW 17.3 mph 26.5 mph 0.00 in   Overcast
1:45 AM -2.9 °F -27.6 °F -9.9 °F 72% 29.80 in 1.8 mi WNW 24.2 mph 33.4 mph 0.00 in Snow Light Snow
1:54 AM -2.9 °F -25.0 °F -9.0 °F 75% 29.95 in 2.0 mi WNW 18.4 mph 29.9 mph 0.00 in Snow Light Snow
2:17 AM -4.0 °F -27.0 °F -9.9 °F 76% 29.82 in 1.5 mi WNW 19.6 mph 27.6 mph 0.00 in Snow Light Snow
2:54 AM -4.0 °F -28.1 °F -11.0 °F 72% 29.97 in 1.0 mi WNW 21.9 mph 40.3 mph 0.00 in   Unknown
3:54 AM -5.1 °F -31.5 °F -11.0 °F 76% 29.99 in 1.0 mi WNW 26.5 mph 33.4 mph 0.00 in Snow Light Snow
4:04 AM -5.1 °F -33.1 °F -11.9 °F 72% 29.86 in 0.5 mi WNW 31.1 mph 47.2 mph 0.00 in Snow Snow
4:25 AM -6.0 °F -32.2 °F -11.9 °F 75% 29.87 in 1.2 mi WNW 25.3 mph 33.4 mph 0.00 in   Overcast
4:54 AM -6.0 °F -34.3 °F -11.9 °F 75% 30.04 in 1.0 mi WNW 31.1 mph 46.0 mph 0.00 in   Unknown
5:39 AM -6.0 °F -32.7 °F -13.0 °F 72% 29.90 in 0.8 mi WNW 26.5 mph 41.4 mph 0.00 in   Unknown
5:54 AM -6.0 °F -35.5 °F -13.0 °F 72% 30.08 in 0.8 mi WNW 34.5 mph 46.0 mph 0.00 in   Unknown
6:43 AM -7.1 °F -34.6 °F -13.0 °F 75% 29.95 in 0.5 mi WNW 27.6 mph 46.0 mph 0.00 in Snow Snow
6:54 AM -7.1 °F -34.1 °F -13.0 °F 75% 30.14 in 0.8 mi WNW 26.5 mph 40.3 mph 0.00 in Snow Light Snow
7:04 AM -7.1 °F -31.0 °F -14.1 °F 72% 29.96 in 0.5 mi WNW 19.6 mph 39.1 mph 0.00 in Snow Snow
7:16 AM -7.1 °F -32.1 °F -14.1 °F 72% 29.97 in 0.2 mi WNW 21.9 mph 35.7 mph 0.00 in Snow Heavy Snow
7:49 AM -7.6 °F -34.8 °F -14.8 °F 71% 29.99 in 0.2 mi WNW 26.5 mph 39.1 mph 0.00 in Snow Heavy Snow
7:54 AM -7.1 °F -34.6 °F -14.1 °F 72% 30.17 in 0.2 mi WNW 27.6 mph 39.1 mph 0.00 in Snow Heavy Snow
8:54 AM -7.1 °F -31.6 °F -13.0 °F 75% 30.21 in 0.5 mi WNW 20.7 mph 33.4 mph 0.00 in Snow Snow
9:10 AM -7.1 °F -36.2 °F -14.1 °F 72% 30.02 in 0.2 mi WNW 32.2 mph 42.6 mph 0.00 in Snow Heavy Snow
9:18 AM -7.1 °F -33.7 °F -14.1 °F 72% 30.03 in 0.5 mi WNW 25.3 mph 42.6 mph 0.00 in   Unknown
9:54 AM -6.0 °F -31.7 °F -11.9 °F 75% 30.24 in 0.2 mi WNW 24.2 mph 32.2 mph 0.00 in Snow Heavy Snow
10:29 AM -6.0 °F -29.6 °F -11.9 °F 75% 30.05 in 0.5 mi WNW 19.6 mph 26.5 mph 0.00 in Snow Snow
10:43 AM -5.1 °F -27.8 °F -11.0 °F 76% 30.06 in 0.2 mi West 18.4 mph 26.5 mph 0.00 in Snow Heavy Snow
10:50 AM -5.8 °F -31.0 °F -11.2 °F 77% 30.06 in 0.5 mi WNW 23.0 mph 28.8 mph 0.00 in Snow Snow
10:54 AM -5.1 °F -31.0 °F -11.9 °F 72% 30.25 in 0.2 mi West 25.3 mph 35.7 mph 0.00 in Snow Heavy Snow
11:09 AM -5.1 °F -29.0 °F -11.9 °F 72% 30.06 in 0.5 mi West 20.7 mph 34.5 mph 0.00 in Snow Snow
11:54 AM -2.9 °F -27.6 °F -11.0 °F 68% 30.25 in 0.8 mi WNW 24.2 mph 32.2 mph 0.00 in Snow Light Snow
12:34 PM -2.0 °F -26.4 °F -11.0 °F 66% 30.06 in 0.8 mi West 24.2 mph 33.4 mph 0.00 in   Unknown
12:42 PM -2.0 °F -24.4 °F -9.9 °F 69% 30.06 in 1.2 mi WNW 19.6 mph 31.1 mph 0.00 in   Overcast
12:54 PM -0.9 °F -23.0 °F -9.0 °F 69% 30.24 in 1.0 mi WNW 19.6 mph 27.6 mph 0.00 in   Unknown
1:06 PM -2.0 °F -25.5 °F -9.9 °F 69% 30.06 in 0.8 mi West 21.9 mph 32.2 mph 0.00 in   Overcast
1:25 PM -2.0 °F -25.5 °F -9.9 °F 69% 30.06 in 1.0 mi West 21.9 mph 35.7 mph 0.00 in   Overcast
1:54 PM -0.9 °F -24.1 °F -9.0 °F 69% 30.25 in 1.2 mi WNW 21.9 mph 28.8 mph 0.00 in   Overcast
2:25 PM -0.0 °F -18.7 °F -8.0 °F 69% 30.06 in 0.8 mi WNW 13.8 mph 29.9 mph 0.00 in Snow Light Snow
2:35 PM -0.0 °F -22.4 °F -8.0 °F 69% 30.06 in 1.0 mi WNW 20.7 mph 28.8 mph 0.00 in Snow Light Snow
2:42 PM -0.0 °F -22.4 °F -8.0 °F 69% 30.06 in 0.8 mi WNW 20.7 mph 31.1 mph 0.00 in Snow Light Snow
2:54 PM -0.0 °F -22.4 °F -8.0 °F 69% 30.25 in 1.8 mi WNW 20.7 mph 27.6 mph 0.00 in Snow Light Snow
3:01 PM -0.0 °F -22.9 °F -9.0 °F 66% 30.06 in 2.5 mi WNW 21.9 mph 28.8 mph 0.00 in   Overcast
3:11 PM 1.0 °F -21.9 °F -9.0 °F 63% 30.06 in 3.0 mi WNW 23.0 mph 29.9 mph 0.00 in Snow Blowing Snow
3:18 PM 1.0 °F -22.4 °F -9.0 °F 63% 30.06 in 2.0 mi NW 24.2 mph 31.1 mph 0.00 in Snow Blowing Snow
3:30 PM 1.0 °F -21.9 °F -9.0 °F 63% 30.07 in 4.0 mi WNW 23.0 mph 27.6 mph 0.00 in   Haze
3:43 PM 1.0 °F -21.9 °F -9.0 °F 63% 30.07 in 2.0 mi WNW 23.0 mph 32.2 mph 0.00 in Snow Blowing Snow
3:54 PM 1.0 °F -21.4 °F -9.0 °F 63% 30.26 in 1.5 mi WNW 21.9 mph 33.4 mph 0.00 in Snow Blowing Snow
4:13 PM 1.0 °F -21.4 °F -9.0 °F 63% 30.07 in 2.5 mi WNW 21.9 mph 32.2 mph N/A Snow Blowing Snow
4:20 PM -0.0 °F -23.8 °F -9.0 °F 66% 30.07 in 3.0 mi WNW 24.2 mph 29.9 mph N/A Snow Blowing Snow
4:54 PM -0.0 °F -22.4 °F -9.9 °F 63% 30.28 in 4.0 mi WNW 20.7 mph 29.9 mph 0.00 in   Haze
5:54 PM -0.9 °F -21.9 °F -11.0 °F 62% 30.31 in 6.0 mi WNW 17.3 mph 26.5 mph 0.00 in   Haze
6:54 PM -2.0 °F -25.5 °F -13.0 °F 60% 30.34 in 9.0 mi WNW 21.9 mph 28.8 mph N/A   Clear
7:54 PM -4.0 °F -25.8 °F -14.1 °F 62% 30.35 in 10.0 mi WNW 17.3 mph 24.2 mph N/A   Clear
8:54 PM -5.1 °F -27.2 °F -15.0 °F 62% 30.38 in 10.0 mi WNW 17.3 mph 26.5 mph N/A   Clear
9:54 PM -6.0 °F -27.0 °F -15.0 °F 65% 30.39 in 10.0 mi WNW 15.0 mph - N/A   Clear
10:54 PM -8.0 °F -30.3 °F -15.0 °F 71% 30.39 in 10.0 mi WNW 16.1 mph 27.6 mph N/A   Clear
11:54 PM -9.0 °F -25.2 °F -15.0 °F 75% 30.38 in 10.0 mi West 8.1 mph 19.6 mph N/A   Clear